SCP
0 0 0 0 0 0 0 0 0 0 0 0 0 0 0 0 0 0 0 0 0 0 0 0 0 0 0 0 0 0 0 0 0 0 0 0 0 0
0 0 0 0 0 0 0 0 0 0 0 0 0 0 0 0 0 0 0 0 0 0 0 0 0 0 0 0 0 0 0 0 0 0 0 0 0 0
0 0 0 0 0 0 0 0 0 0 0 0 0 0 0 0 0 0 0 0 0 0 0 0 0 0 0 0 0 0 0 0 0 0 0 0 0 0
0 0 0 0 0 0 0 0 0 0 0 0 0 0 0 0 0 0 0 0 0 0 0 0 0 0 0 0 0 0 0 0 0 0 0 0 0 0
1 1 0 0 0 1 0 0 0 0 0 0 0 0 0 0 0 0 0 0 0 0 0 0 0 0 0 0 0 0 0 0 0 0 0 0 0 0
1 0 0 0 0 0 0 0 0 0 0 0 0 0 0 0 0 0 0 0 0 0 0 0 0 0 0 0 0 0 0 0 0 0 0 0 0 0
1 0 0 0 0 0 0 0 0 0 0 0 0 0 0 1 0 0 0 0 0 0 0 0 0 0 0 0 0 0 0 0 0 0 0 0 0 0
0 0 0 0 0 0 0 0 0 0 0 0 0 0 0 0 0 0 0 0 0 0 0 0 0 0 0 0 0 0 0 0 0 0 0 0 0 0
0 0 0 0 0 0 0 0 0 0 0 0 0 0 0 0 0 0 0 0 0 0 0 0 0 0 0 0 0 0 0 0 0 0 0 0 0 0
0 0 0 0 0 0 0 0 0 0 0 0 0 0 0 0 0 0 0 0 0 0 0 0 0 0 0 0 0 0 0 0 0 0 0 0 0 0
0 0 0 0 0 0 0 0 0 0 0 0 0 0 0 0 0 0 0 0 0 0 0 0 0 0 0 0 0 0 0 0 0 0 0 0 0 0
0 0 0 0 0 0 0 0 0 0 0 0 0 0 0 0 0 0 0 0 0 0 0 0 0 0 0 0 0 0 0 0 0 0 0 0 0 0
0 0 0 0 0 0 0 0 0 0 0 0 0 0 0 0 0 0 0 0 0 0 0 0 0 0 0 0 0 0 0 0 0 0 0 0 0 0
0 0 0 0 0 0 0 0 0 0 0 0 0 0 0 0 0 0 0 0 0 0 0 0 0 0 0 0 0 0 0 0 0 0 0 0 0 0
0 0 0 0 0 0 0 0 0 0 0 0 0 0 0 0 0 0 0 0 0 0 0 0 0 0 0 0 0 0 0 0 0 0 0 0 0 0
0 0 0 0 0 0 0 0 0 0 0 0 0 0 0 0 0 0 0 0 0 0 0 0 0 0 0 0 0 0 0 0 0 0 0 0 0 0
0 0 0 0 0 0 0 0 0 0 0 0 0 0 0 0 0 0 0 0 0 0 0 0 0 0 0 0 0 0 0 0 0 0 0 0 0 0
0 0 0 0 0 0 0 0 0 0 0 0 0 0 0 0 0 0 0 0 0 0 0 0 0 0 0 0 0 0 0 0 0 0 0 0 0 0
0 0 0 0 0 0 0 0 0 0 0 0 0 0 0 0 0 0 0 0 0 0 0 0 0 0 0 0 0 0 0 0 0 0 0 0 0 0
0 0 0 0 0 0 0 0 0 0 0 0 0 0 0 0 0 0 0 0 0 0 0 0 0 0 0 0 0 0 0 0 0 0 0 0 0 0
0 0 0 0 0 0 0 0 0 0 0 0 0 0 0 0 0 0 0 0 0 0 0 0 0 0 0 0 0 0 0 0 0 0 0 0 0 0
0 0 0 0 0 0 0 0 0 0 0 0 0 0 0 0 0 0 0 0 0 0 0 0 0 0 0 0 0 0 0 0 0 0 0 0 0 0
0 0 0 0 0 0 0 0 0 0 0 0 0 0 0 0 0 0 0 0 0 0 0 0 0 0 0 0 0 0 0 0 0 0 0 0 0 0
Wind_Speed
9 9 8 6 5 5 5 5 6 6 5 4 5 4 4 4 3 6 7 8 10 11 11 11 11 11 11 10 10 10 10 10 11 11 12 12 13 13
7 8 8 7 5 5 5 5 6 7 7 4 3 4 3 5 5 7 7 6 10 10 10 10 10 10 10 10 10 10 10 10 10 10 11 11 11 12
8 8 9 7 5 5 5 5 6 6 7 6 4 3 3 6 4 5 7 7 7 12 11 10 10 10 10 10 10 10 10 10 10 10 10 10 11 11
9 8 8 6 7 6 5 6 5 6 7 7 5 4 5 6 5 6 6 6 7 8 11 10 10 10 10 10 10 9 9 10 10 10 10 11 11 12
7 7 7 6 6 5 5 5 5 6 5 6 6 4 4 4 5 6 7 5 8 5 10 11 10 10 9 10 10 10 10 10 10 10 10 11 11 11
6 6 5 5 5 5 4 5 5 5 4 5 6 5 4 4 4 6 6 5 6 6 4 5 8 11 11 11 11 10 10 10 10 10 11 11 11 11
5 4 4 3 1 2 3 3 4 4 4 5 5 5 4 3 4 5 6 5 5 5 5 5 5 6 7 10 11 9 9 9 9 10 10 11 11 11
3 3 3 4 4 3 1 1 2 3 4 4 4 4 4 4 4 5 5 5 5 2 4 6 5 5 5 5 4 5 6 7 7 8 9 10 11 11
2 2 2 1 2 2 4 4 2 1 2 3 4 4 4 3 4 5 4 5 5 5 4 6 5 5 5 4 5 5 6 6 7 8 9 9 10 11
1 1 1 1 1 1 2 2 2 1 1 2 2 3 3 4 4 5 5 5 6 5 4 6 6 6 6 5 5 7 7 8 9 9 10 10 10 11
3 3 2 2 3 2 2 2 1 1 3 3 1 1 2 3 4 4 4 5 5 4 3 5 6 6 6 6 4 8 9 10 11 11 11 11 10 10
4 5 8 6 6 4 0 1 0 1 1 1 2 3 2 1 2 3 4 5 5 5 3 4 6 7 7 5 5 4 6 9 12 13 13 12 10 9
4 4 6 8 8 7 5 4 3 4 2 1 1 1 1 1 2 2 3 5 6 6 5 5 6 6 7 7 7 6 6 6 7 8 10 12 11 10
5 5 6 7 8 7 5 5 4 4 2 2 2 2 3 3 3 4 4 5 5 7 6 6 6 6 8 9 8 6 6 7 7 7 7 6 9 13
6 8 6 4 4 5 5 3 3 2 3 3 3 3 4 4 4 4 4 4 5 6 4 5 7 7 7 9 9 8 8 8 7 7 8 8 8 7
5 6 5 4 3 3 2 2 4 4 4 4 4 3 3 3 4 4 5 5 5 4 3 4 5 7 8 9 9 9 8 8 7 7 8 8 8 8
2 3 3 3 3 4 4 4 4 3 3 4 4 4 4 4 4 4 4 5 6 6 5 4 5 6 8 9 9 8 8 8 7 7 8 9 8 7
2 5 5 5 5 5 4 4 4 4 5 4 4 5 5 5 5 5 5 5 6 6 6 6 7 7 7 6 5 8 8 8 8 8 9 9 9 7
4 5 5 5 5 5 5 5 5 5 5 5 5 5 5 5 6 5 6 6 7 7 7 7 7 7 9 9 6 4 9 9 9 9 8 8 8 8
5 6 5 5 5 5 5 5 5 5 5 5 5 5 6 6 6 6 6 7 8 8 8 6 6 7 8 9 9 9 8 9 8 9 9 8 8 7
6 6 6 6 6 5 5 5 5 5 6 6 6 6 6 6 6 7 7 6 7 7 8 7 6 7 8 7 8 8 7 5 5 7 9 9 8 8
5 5 5 5 5 5 5 5 5 5 6 6 6 7 7 7 7 8 7 7 7 7 8 7 7 7 6 7 8 9 9 8 5 6 7 7 7 7
5 5 4 5 5 5 5 6 6 6 6 6 7 7 7 7 7 7 7 7 7 8 8 8 8 7 7 7 8 8 11 10 8 7 5 3 7 10
Wind_Direction
230 223 233 238 239 244 247 255 267 271 261 223 232 228 237 245 197 227 242 198 206 220 227 229 229 230 231 234 237 240 243 245 245 245 247 248 250 252
230 233 231 234 232 238 242 245 252 265 275 275 244 256 259 268 205 238 242 202 207 217 223 226 228 230 232 234 236 237 239 242 245 246 247 247 248 250
224 223 226 235 231 232 233 240 243 248 259 267 268 258 243 267 260 250 250 245 224 202 210 219 225 228 230 233 235 235 237 239 242 246 249 251 252 253
223 221 223 219 220 237 240 244 247 250 255 263 269 261 240 247 255 259 261 252 256 192 198 213 221 226 228 230 233 236 238 241 244 247 249 250 252 254
221 220 222 220 221 227 236 246 248 246 249 260 262 262 258 250 251 252 258 265 267 220 195 206 216 222 227 228 231 234 237 242 246 248 251 253 255 256
218 216 218 216 218 224 228 241 250 255 252 258 264 261 255 251 253 259 257 243 257 265 255 234 212 215 224 226 228 232 236 241 245 249 250 251 254 256
203 203 202 186 179 232 247 245 249 253 256 258 263 270 273 281 274 279 282 280 266 264 267 260 241 240 225 224 224 229 238 244 250 253 254 256 257 257
191 191 187 179 168 163 137 10 312 271 273 276 277 282 289 289 293 290 290 285 278 275 276 273 268 265 258 252 191 201 230 246 254 257 259 261 261 259
205 207 216 173 171 196 176 182 186 258 277 283 288 296 297 302 295 285 287 292 292 299 285 276 269 267 267 258 170 197 223 242 253 258 262 265 266 264
128 119 119 88 35 255 207 177 168 158 217 242 289 300 322 326 303 288 288 275 264 258 269 280 287 283 284 279 195 206 225 239 247 251 255 260 264 265
85 66 63 76 18 321 208 174 166 168 132 121 89 41 26 1 326 300 301 292 292 293 279 280 289 291 285 276 244 207 224 234 242 247 251 255 260 265
90 77 57 47 36 17 81 134 153 340 329 154 177 207 232 227 247 297 306 298 298 297 322 303 297 303 294 285 289 274 254 243 239 243 244 246 248 264
92 79 62 52 52 44 38 41 16 333 324 308 293 282 271 289 298 317 315 305 305 303 326 319 303 302 294 294 294 291 289 287 275 262 243 237 233 245
77 78 76 68 67 57 54 29 345 313 333 344 345 347 340 342 347 335 321 305 300 297 303 305 297 299 296 294 295 297 296 294 293 294 294 264 235 235
77 77 83 89 108 89 65 7 334 1 7 358 357 355 349 345 326 318 310 297 282 277 288 301 296 296 291 291 296 302 301 299 295 295 294 293 293 284
102 113 119 96 84 76 80 51 41 31 4 0 351 345 337 332 330 336 328 322 311 306 305 298 290 292 289 294 294 294 295 296 300 300 300 296 291 288
76 97 78 75 66 60 56 46 34 32 17 6 351 340 339 339 340 337 327 317 314 316 318 315 304 292 286 286 290 295 301 301 305 310 301 294 293 293
31 71 62 52 47 42 35 34 31 22 8 357 353 349 342 338 337 337 332 327 323 322 320 322 319 308 297 284 275 297 303 307 309 306 299 297 298 301
65 66 57 50 45 41 34 28 24 22 3 355 355 352 345 341 339 337 335 330 324 321 319 318 316 314 310 310 309 294 307 307 306 305 305 305 303 309
57 58 54 47 39 32 27 23 16 10 2 354 353 348 343 337 333 331 328 331 322 316 314 316 321 321 315 312 309 304 291 298 310 312 312 309 305 299
53 49 42 36 32 26 18 10 7 6 0 346 351 344 338 333 333 332 329 333 316 317 324 329 339 316 299 295 294 304 316 312 303 303 309 307 308 308
49 47 41 33 27 19 14 7 3 2 354 346 347 340 337 333 332 331 332 331 328 327 325 322 323 315 311 309 308 312 317 320 300 255 258 276 304 312
46 39 34 28 24 13 6 4 -0 356 353 347 342 338 336 333 330 332 332 330 329 329 327 326 325 321 319 315 315 319 323 325 325 325 323 279 252 259